TimeCDT,TemperatureF,Dew PointF,Humidity,Sea Level PressureIn,VisibilityMPH,Wind Direction,Wind SpeedMPH,Gust SpeedMPH,PrecipitationIn,Events,Conditions,WindDirDegrees,DateUTC
12:15 AM,74.3,56.5,54,29.72,10.0,SSE,17.3,25.3,N/A,,Clear,150,2013-09-28 05:15:00
12:35 AM,73.8,56.8,55,29.70,10.0,SSE,17.3,25.3,N/A,,Scattered Clouds,150,2013-09-28 05:35:00
12:55 AM,73.8,57.2,56,29.70,10.0,SSE,18.4,27.6,N/A,,Scattered Clouds,150,2013-09-28 05:55:00
1:15 AM,73.6,57.2,56,29.69,10.0,SSE,17.3,23.0,N/A,,Mostly Cloudy,160,2013-09-28 06:15:00
1:35 AM,73.2,57.4,57,29.70,10.0,SSE,18.4,26.5,N/A,,Mostly Cloudy,160,2013-09-28 06:35:00
1:55 AM,72.9,57.6,59,29.70,10.0,SSE,15.0,21.9,N/A,,Mostly Cloudy,160,2013-09-28 06:55:00
2:15 AM,72.7,57.7,59,29.70,10.0,SSE,13.8,-,N/A,,Mostly Cloudy,160,2013-09-28 07:15:00
2:35 AM,73.0,57.9,59,29.69,10.0,SSE,17.3,20.7,N/A,,Overcast,160,2013-09-28 07:35:00
2:55 AM,72.1,58.6,62,29.70,10.0,South,15.0,20.7,N/A,Rain,Light Rain,170,2013-09-28 07:55:00
3:15 AM,71.4,59.4,66,29.70,10.0,South,9.2,-,N/A,,Overcast,170,2013-09-28 08:15:00
3:35 AM,70.7,59.5,68,29.68,10.0,SSE,8.1,-,N/A,,Mostly Cloudy,160,2013-09-28 08:35:00
3:55 AM,70.3,60.8,72,29.70,10.0,SSW,9.2,-,N/A,Rain,Light Rain,200,2013-09-28 08:55:00
4:15 AM,72.5,60.8,67,29.70,10.0,SW,9.2,-,N/A,,Overcast,220,2013-09-28 09:15:00
4:35 AM,65.5,61.0,85,29.73,5.0,WNW,9.2,18.4,0.07,Rain,Heavy Rain,300,2013-09-28 09:35:00
4:55 AM,62.8,59.7,90,29.74,4.0,NW,12.7,-,0.19,Rain,Heavy Rain,310,2013-09-28 09:55:00
5:15 AM,60.4,57.4,90,29.77,7.0,NW,8.1,-,0.04,Rain,Rain,320,2013-09-28 10:15:00
5:35 AM,57.4,54.7,91,29.73,10.0,NNW,12.7,-,0.07,Rain,Light Rain,340,2013-09-28 10:35:00
5:55 AM,56.7,54.5,92,29.74,10.0,NW,10.4,-,0.08,Rain,Light Rain,310,2013-09-28 10:55:00
6:15 AM,56.1,53.4,91,29.77,10.0,WNW,17.3,24.2,N/A,,Overcast,300,2013-09-28 11:15:00
6:35 AM,55.6,52.5,89,29.80,10.0,WNW,16.1,24.2,N/A,,Overcast,300,2013-09-28 11:35:00
6:55 AM,55.4,51.4,87,29.82,10.0,WNW,15.0,25.3,N/A,,Overcast,300,2013-09-28 11:55:00
7:15 AM,55.0,51.3,87,29.84,10.0,WNW,13.8,19.6,N/A,,Overcast,300,2013-09-28 12:15:00
7:35 AM,54.9,51.3,88,29.85,10.0,NW,10.4,18.4,N/A,,Overcast,310,2013-09-28 12:35:00
7:55 AM,54.5,51.1,88,29.86,7.0,NW,13.8,19.6,N/A,,Overcast,310,2013-09-28 12:55:00
8:15 AM,54.7,51.1,88,29.88,10.0,WNW,15.0,18.4,N/A,,Overcast,290,2013-09-28 13:15:00
8:35 AM,53.8,50.9,90,29.89,3.0,WNW,13.8,21.9,N/A,,Drizzle,300,2013-09-28 13:35:00
8:55 AM,54.1,50.4,87,29.89,10.0,NW,10.4,-,N/A,,Overcast,310,2013-09-28 13:55:00
9:15 AM,54.7,50.4,85,29.91,10.0,WNW,15.0,20.7,N/A,,Overcast,300,2013-09-28 14:15:00
9:35 AM,54.5,49.5,83,29.92,10.0,WNW,17.3,21.9,N/A,,Overcast,300,2013-09-28 14:35:00
9:55 AM,54.0,48.0,80,29.92,10.0,NW,15.0,26.5,N/A,,Overcast,310,2013-09-28 14:55:00
10:15 AM,56.1,48.4,75,29.92,10.0,NW,11.5,23.0,N/A,,Mostly Cloudy,320,2013-09-28 15:15:00
10:35 AM,56.8,47.3,70,29.93,10.0,NW,15.0,19.6,N/A,,Clear,310,2013-09-28 15:35:00
10:55 AM,58.3,47.7,68,29.94,10.0,WNW,13.8,23.0,N/A,,Clear,300,2013-09-28 15:55:00
11:15 AM,60.6,47.5,62,29.95,10.0,WNW,15.0,20.7,N/A,,Scattered Clouds,300,2013-09-28 16:15:00
11:35 AM,61.7,47.5,60,29.96,10.0,WNW,12.7,21.9,N/A,,Mostly Cloudy,290,2013-09-28 16:35:00
11:55 AM,61.7,45.1,55,29.96,10.0,WNW,15.0,23.0,N/A,,Scattered Clouds,290,2013-09-28 16:55:00
12:15 PM,61.0,45.5,57,29.97,10.0,WNW,12.7,20.7,N/A,,Clear,300,2013-09-28 17:15:00
12:35 PM,61.2,45.5,56,29.97,10.0,WNW,15.0,20.7,N/A,,Clear,290,2013-09-28 17:35:00
12:55 PM,63.3,45.0,51,29.97,10.0,WNW,15.0,-,N/A,,Scattered Clouds,290,2013-09-28 17:55:00
1:15 PM,64.9,44.8,48,29.97,10.0,NW,17.3,20.7,N/A,,Scattered Clouds,310,2013-09-28 18:15:00
1:35 PM,65.5,44.1,46,29.97,10.0,WNW,15.0,23.0,N/A,,Clear,290,2013-09-28 18:35:00
1:55 PM,66.0,43.3,44,29.97,10.0,West,11.5,18.4,N/A,,Clear,280,2013-09-28 18:55:00
2:15 PM,66.6,43.3,43,29.97,10.0,WNW,15.0,20.7,N/A,,Clear,300,2013-09-28 19:15:00
2:35 PM,67.1,42.1,40,29.97,10.0,WNW,13.8,18.4,N/A,,Clear,290,2013-09-28 19:35:00
2:55 PM,68.0,41.9,39,29.97,10.0,WNW,15.0,19.6,N/A,,Clear,290,2013-09-28 19:55:00
3:15 PM,68.2,40.8,37,29.97,10.0,WNW,16.1,23.0,N/A,,Clear,300,2013-09-28 20:15:00
3:35 PM,68.9,40.8,36,29.98,10.0,NW,12.7,16.1,N/A,,Clear,310,2013-09-28 20:35:00
3:55 PM,69.1,39.7,34,29.98,10.0,WNW,12.7,20.7,N/A,,Clear,300,2013-09-28 20:55:00
4:15 PM,69.3,39.9,34,29.98,10.0,WNW,11.5,16.1,N/A,,Clear,290,2013-09-28 21:15:00
4:35 PM,69.1,38.7,33,29.98,10.0,WNW,16.1,-,N/A,,Clear,300,2013-09-28 21:35:00
4:55 PM,69.4,38.3,32,29.98,10.0,WNW,9.2,17.3,N/A,,Clear,300,2013-09-28 21:55:00
5:15 PM,69.4,38.1,32,29.99,10.0,WNW,11.5,16.1,N/A,,Clear,300,2013-09-28 22:15:00
5:35 PM,69.3,37.4,31,29.99,10.0,NW,9.2,16.1,N/A,,Clear,320,2013-09-28 22:35:00
5:55 PM,68.7,37.6,32,30.00,10.0,NW,8.1,17.3,N/A,,Clear,310,2013-09-28 22:55:00
6:15 PM,68.2,37.8,33,30.00,10.0,NW,11.5,-,N/A,,Clear,310,2013-09-28 23:15:00
6:35 PM,67.3,39.2,36,30.00,10.0,WNW,6.9,-,N/A,,Clear,300,2013-09-28 23:35:00
6:55 PM,65.3,40.1,40,30.01,10.0,WNW,4.6,-,N/A,,Clear,300,2013-09-28 23:55:00
7:15 PM,61.9,41.9,48,30.01,10.0,West,4.6,-,N/A,,Clear,280,2013-09-29 00:15:00
7:35 PM,59.9,42.8,53,30.02,10.0,Calm,Calm,-,N/A,,Clear,0,2013-09-29 00:35:00
7:55 PM,59.5,43.2,55,30.02,10.0,West,3.5,-,N/A,,Clear,270,2013-09-29 00:55:00
8:15 PM,58.3,41.2,53,30.03,10.0,Calm,Calm,-,N/A,,Clear,0,2013-09-29 01:15:00
8:35 PM,56.3,42.6,60,30.04,10.0,Calm,Calm,-,N/A,,Clear,0,2013-09-29 01:35:00
8:55 PM,53.8,44.8,72,30.04,10.0,Calm,Calm,-,N/A,,Clear,0,2013-09-29 01:55:00
9:15 PM,52.5,44.8,75,30.04,10.0,Calm,Calm,-,N/A,,Clear,0,2013-09-29 02:15:00
9:35 PM,50.5,44.6,80,30.05,10.0,SSW,3.5,-,N/A,,Clear,210,2013-09-29 02:35:00
9:55 PM,52.7,44.2,73,30.06,10.0,Calm,Calm,-,N/A,,Clear,0,2013-09-29 02:55:00
10:15 PM,52.0,45.0,77,30.06,10.0,Calm,Calm,-,N/A,,Clear,0,2013-09-29 03:15:00
10:35 PM,51.3,45.0,79,30.06,10.0,Calm,Calm,-,N/A,,Clear,0,2013-09-29 03:35:00
10:55 PM,49.6,44.1,81,30.06,10.0,SW,3.5,-,N/A,,Clear,220,2013-09-29 03:55:00
11:15 PM,51.1,43.7,76,30.06,10.0,Calm,Calm,-,N/A,,Clear,0,2013-09-29 04:15:00
11:35 PM,50.2,43.7,78,30.07,10.0,SW,3.5,-,N/A,,Clear,220,2013-09-29 04:35:00
11:55 PM,51.3,43.7,75,30.07,10.0,SSW,3.5,-,N/A,,Clear,210,2013-09-29 04:55:00